Regional Weather Roundup
Issued by NWS

Home | Current Version | Previous Version | Text Only | Print | Product List | Glossary Off
Versions: 1 2 3 4 5 6 7 8 9 10 11 12 13 14 15 16 17 18 19 20 21 22 23 24 25 26 27 28 29 30 31 32 33 34 35 36 37 38 39 40 41 42 43 44 45 46 47 48 49 50

113
ASUS43 KTOP 072308
RWRKS

WEATHER ROUNDUP FOR KANSAS
NATIONAL WEATHER SERVICE GOODLAND KS
500 PM CST SUN FEB 07 2016

NOTE:  "FAIR" INDICATES FEW OR NO CLOUDS BELOW 12,000 FEET WITH NO
SIGNIFICANT WEATHER AND/OR OBSTRUCTIONS TO VISIBILITY.

KSZ001>006-013>018-027>032-041>047-080000-
NORTHWEST KANSAS

CITY           SKY/WX    TMP DP  RH WIND       PRES   REMARKS
GOODLAND       CLOUDY    34  18  52 NW24G35   30.27S WCI  21
HAYS           PTSUNNY   43  19  39 NW28G35   30.20S
HILL CITY      SUNNY     38  23  55 NW21G29   30.20S WCI  28
RUSSELL        SUNNY     40  24  53 NW21      30.17S WCI  30
$$

KSZ061>065-074>080-084>089-080000-
SOUTHWEST KANSAS

CITY           SKY/WX    TMP DP  RH WIND       PRES   REMARKS
DODGE CITY     CLOUDY    42  11  28 N16G40    30.26R
ELKHART          N/A     44  16  32 N20         N/A
GARDEN CITY    SUNNY     42  16  34 N26G35    30.28R
GREAT BEND     CLOUDY    43  21  42 NW25G32   30.20S
LIBERAL        SUNNY     46  12  25 N31       30.29R
PRATT          CLOUDY    43  20  39 NW20G31   30.20F
$$

KSZ066>073-081>083-090>101-080000-
SOUTHEAST KANSAS

CITY           SKY/WX    TMP DP  RH WIND       PRES   REMARKS
CHANUTE        PTCLDY    52  14  22 NW21G37   30.07F
COFFEYVILLE    CLEAR     54  20  26 NW18G33   30.09F
HUTCHINSON     SUNNY     49  24  37 NW26G33   30.15F
MEDICINE LODGE   N/A     50  15  24 NW25G37   30.21R
NEWTON         CLEAR     48  12  23 NW23G31   30.14S
PARSONS        CLEAR     54  15  21 NW22G35   30.08F
WICHITA INTL   PTCLDY    50  21  32 NW20G25   30.14F
WICHITA JABRA  CLEAR     50  11  20 NW17G28   30.13F
WICHITA MCCONL CLEAR     50  20  30 NW16G24   30.13F
WINFIELD       PTCLDY    51  21  30 NW18      30.16R
$$

KSZ007>012-019>026-033>040-048>060-102>105-080000-
NORTHEAST KANSAS

CITY           SKY/WX    TMP DP  RH WIND       PRES   REMARKS
CONCORDIA      PTCLDY    44  24  45 NW22G35   30.09R
EMPORIA        CLEAR     49  10  20 NW18G37   30.08S
LAWRENCE       MOCLDY    48  15  26 NW22G35   30.04R
MANHATTAN      CLOUDY    49  19  30 NW17G32   30.08F
MARYSVILLE     CLOUDY    41  25  52 NW26G37   30.06R
OLATHE IND     PTCLDY    48  13  24 NW21G38   30.02S
OLATHE EXE     PTCLDY    47   8  20 NW24G39   30.01S
SALINA         PTCLDY    50  19  29 NW31G38   30.13R
TOPEKA BILLARD CLOUDY    49  14  24 W21G31    30.04S
TOPEKA FORBES  CLOUDY    49  15  25 NW24G32   30.04S
$$




USA.gov is the U.S. government's official web portal to all federal, state and local government web resources and services.